Concord, NH

4:47 PM EDT on May 24, 2017 (GMT -0400)
Concord Municipal

Weather History for KCON - September, 2012

Change the Weather History Date:

Sunday, September 2, 2012

  Actual Average Record
Temperature  
Mean Temperature 66 °F 65 °F  
Max Temperature 77 °F 78 °F 98 °F (1953)
Min Temperature 55 °F 53 °F 34 °F (1970)
Degree Days  
Heating Degree Days 0 3  
Month to date heating degree days 0 5  
Since 1 July heating degree days 6 53  
Cooling Degree Days 1 3  
Month to date cooling degree days 4 6  
Year to date cooling degree days 534 419  
Growing Degree Days 16 (Base 50)    
Moisture  
Dew Point 55 °F    
Average Humidity 70    
Maximum Humidity 93    
Minimum Humidity 46    
Precipitation  
Precipitation T in 0.10 in 1.63 in (1956)
Month to date precipitation T 0.20  
Year to date precipitation 26.97 26.47  
Snow  
Snow 0.00 in 0.00 in 0.00 in (2002)
Month to date snowfall 0.0 0.0  
Since 1 July snowfall 0.0 0.0  
Since 1 September snowfall 0.0 0.0  
Snow Depth 0.00 in    
Sea Level Pressure  
Sea Level Pressure 30.12 in    
Wind  
Wind Speed 2 mph (ESE)    
Max Wind Speed 10 mph    
Max Gust Speed 16 mph    
Visibility 10 miles    
Events Rain    
T = Trace of Precipitation, MM = Missing Value Source: NWS Daily Summary

Daily Weather History Graph

Daily Weather History Graph

Search for Another Location

Airport or City:

Trip Planner

Search our weather history database for the weather conditions in past years. The results will help you decide how hot, cold, wet, or windy it might be!

Date:

Astronomy

Sep. 02, 2012 Rise Set
Actual Time 6:11 AM EDT 7:18 PM EDT
Civil Twilight 5:42 AM EDT 7:47 PM EDT
Nautical Twilight 5:07 AM EDT 8:22 PM EDT
Astronomical Twilight 4:30 AM EDT 8:58 PM EDT
Moon 7:58 PM EDT (9/2) 8:22 AM EDT (9/2)
Length of Visible Light 14h 05m
Length of Day
13h 06m
Waning Gibbous, 95% of the Moon is Illuminated
Sep 2
Waning Gibbous
Sep 8
Last Quarter
Sep 15
New
Sep 22
First Quarter
Sep 29
Full

Hourly Weather History & Observations

Time (EDT) Temp. Dew Point Humidity Pressure Visibility Wind Dir Wind Speed Gust Speed Precip Events Conditions
12:51 AM 55.9 °F 53.1 °F 90% 30.12 in 10.0 mi Calm Calm - N/A   Mostly Cloudy
1:51 AM 57.0 °F 54.0 °F 89% 30.12 in 10.0 mi Calm Calm - N/A   Overcast
2:51 AM 57.0 °F 54.0 °F 89% 30.12 in 10.0 mi Calm Calm - N/A   Overcast
3:51 AM 57.0 °F 55.0 °F 93% 30.11 in 10.0 mi Calm Calm - N/A   Overcast
4:51 AM 57.0 °F 55.0 °F 93% 30.11 in 10.0 mi Calm Calm - N/A   Overcast
5:51 AM 59.0 °F 55.0 °F 87% 30.10 in 10.0 mi SSW 3.5 mph - N/A   Overcast
6:51 AM 60.1 °F 55.0 °F 83% 30.12 in 10.0 mi Calm Calm - N/A   Overcast
7:51 AM 61.0 °F 53.1 °F 75% 30.11 in 10.0 mi Calm Calm - N/A   Overcast
8:51 AM 63.0 °F 54.0 °F 72% 30.11 in 10.0 mi SE 4.6 mph - N/A   Overcast
9:51 AM 63.0 °F 55.9 °F 78% 30.11 in 10.0 mi SSE 5.8 mph - 0.00 in Rain Light Rain
10:51 AM 66.9 °F 54.0 °F 63% 30.10 in 10.0 mi Variable 5.8 mph - 0.00 in   Overcast
11:51 AM 66.9 °F 54.0 °F 63% 30.10 in 10.0 mi Calm Calm - N/A   Overcast
12:51 PM 72.0 °F 53.1 °F 51% 30.10 in 10.0 mi Variable 4.6 mph - N/A   Mostly Cloudy
1:51 PM 75.0 °F 55.0 °F 50% 30.09 in 10.0 mi NNW 5.8 mph - N/A   Partly Cloudy
2:51 PM 73.0 °F 55.0 °F 53% 30.08 in 10.0 mi Calm Calm - N/A   Overcast
3:51 PM 75.9 °F 53.1 °F 45% 30.08 in 10.0 mi North 5.8 mph - N/A   Mostly Cloudy
4:51 PM 73.9 °F 54.0 °F 50% 30.09 in 10.0 mi NE 4.6 mph - N/A   Clear
5:51 PM 70.0 °F 57.9 °F 65% 30.10 in 10.0 mi East 5.8 mph - N/A   Scattered Clouds
6:51 PM 66.9 °F 59.0 °F 76% 30.11 in 10.0 mi ESE 4.6 mph - N/A   Clear
7:51 PM 64.0 °F 59.0 °F 84% 30.13 in 10.0 mi Calm Calm - N/A   Clear
8:51 PM 62.1 °F 57.9 °F 86% 30.15 in 10.0 mi ESE 3.5 mph - N/A   Clear
9:51 PM 60.1 °F 57.9 °F 93% 30.16 in 10.0 mi Calm Calm - N/A   Clear
10:39 PM 57.2 °F 57.2 °F 100% 30.18 in 10.0 mi South 3.5 mph - N/A   Partly Cloudy
10:51 PM 59.0 °F 57.9 °F 96% 30.17 in 10.0 mi SSE 4.6 mph - N/A   Mostly Cloudy
11:51 PM 60.1 °F 57.9 °F 93% 30.17 in 10.0 mi Calm Calm - N/A   Overcast